GFSNGP_prec_cthk_030.txt.gz
RH
28 26 24 23 25 27 30 34 42 40 44 48 53 58 64 67 69 71 72 70 71 69 63 59 55 53 48 41 37 39 43 46 51 57 57 50 51 54 66 75 82 96 93 91
25 27 27 25 27 30 33 31 36 43 52 54 57 61 66 70 71 74 74 72 66 62 58 57 53 49 45 40 44 45 45 45 49 47 40 34 31 34 42 65 96 94 94 91
30 34 33 33 30 31 31 33 34 41 48 54 59 64 68 71 72 71 70 67 64 57 56 53 48 46 44 46 46 43 38 34 29 26 32 39 36 38 42 55 68 81 96 96
35 34 29 29 28 29 36 39 39 45 51 55 61 66 70 72 71 69 68 64 60 56 50 45 40 40 42 40 34 29 27 25 27 35 41 44 39 47 58 67 74 90 97 89
37 44 30 27 30 31 34 44 46 50 53 58 63 67 72 74 73 73 68 65 57 48 43 40 39 40 34 28 26 26 25 29 35 39 43 43 46 54 65 77 90 94 91 83
48 36 36 31 31 33 35 45 47 50 54 61 67 73 74 74 77 71 66 59 50 45 42 38 36 28 26 26 29 33 37 37 42 46 45 48 55 61 70 81 89 91 83 55
50 49 40 31 34 36 47 42 47 53 59 67 69 72 74 77 71 66 61 54 47 44 39 37 32 32 32 31 35 33 34 40 45 45 48 56 63 75 83 85 82 68 59 50
50 52 47 30 36 38 35 43 51 55 61 68 72 75 78 73 69 63 55 48 45 41 38 35 33 30 28 28 28 30 37 40 44 46 54 62 70 79 80 70 57 51 50 47
39 39 31 33 35 34 39 49 55 59 67 73 75 75 76 71 64 58 51 47 43 36 33 31 30 30 28 28 32 36 42 45 48 49 62 68 74 73 59 53 47 47 47 47
41 34 37 39 42 42 51 56 61 64 71 76 77 76 74 68 62 52 46 42 34 33 30 29 29 28 28 30 34 40 46 52 51 53 66 69 61 48 46 46 44 47 47 48
43 43 45 46 46 48 56 63 66 72 77 78 81 75 72 63 52 49 41 36 34 32 30 29 27 26 29 30 37 44 51 53 53 60 63 57 49 44 43 44 45 48 48 50
41 39 42 42 47 53 63 69 76 77 75 81 79 74 62 55 49 40 37 35 34 32 30 28 27 26 27 34 41 46 48 51 55 62 61 53 46 45 46 45 46 50 51 50
41 43 44 45 52 63 70 73 78 80 83 81 74 65 58 46 40 38 37 37 34 32 29 28 27 26 30 38 45 49 48 51 59 64 60 53 46 45 45 46 48 51 52 50
44 49 58 62 69 72 78 82 84 84 82 76 69 58 47 42 39 39 39 38 36 32 28 27 27 29 35 41 47 51 50 57 63 62 59 55 47 46 46 46 50 53 53 50
58 61 65 74 77 83 93 88 86 82 81 74 61 49 45 43 42 40 41 39 34 30 27 26 31 37 41 46 52 56 55 65 69 64 58 55 50 49 49 49 51 52 53 51
68 75 82 85 92 89 88 87 85 84 76 63 54 49 48 44 43 44 41 35 30 27 28 32 37 42 48 53 58 64 63 67 74 68 63 59 54 54 56 53 53 55 55 53
82 86 89 90 90 91 86 86 85 75 63 56 51 48 45 46 44 38 34 31 31 33 36 40 44 50 56 59 64 70 72 69 66 68 65 63 57 61 61 60 56 56 56 55
89 94 94 95 94 91 89 81 70 62 57 52 48 47 46 42 36 33 31 31 33 38 44 49 52 57 62 67 71 76 76 69 59 63 67 63 62 61 62 62 57 60 59 56
92 95 96 94 87 82 74 65 61 57 54 50 47 42 38 36 34 33 33 35 39 41 44 51 57 64 70 75 76 80 77 69 68 64 65 66 64 64 62 59 57 61 60 59
87 86 84 81 77 69 64 61 58 52 46 42 38 36 34 35 37 37 39 45 52 51 52 54 60 67 74 77 81 84 79 76 75 71 69 67 66 64 61 55 59 64 63 65
82 82 80 74 69 65 62 55 47 43 39 38 36 34 35 38 43 48 52 49 55 59 59 61 68 72 73 77 85 88 84 81 83 83 81 76 65 60 57 56 61 66 65 66
81 78 73 67 62 53 48 44 42 39 36 36 37 39 41 45 52 58 63 62 58 63 64 67 71 73 73 79 85 86 88 88 90 93 94 93 78 60 56 60 64 67 69 72
79 72 63 54 49 46 42 38 36 35 37 39 40 45 49 55 62 68 60 68 65 64 65 68 72 75 77 78 81 86 88 90 92 93 94 97 97 75 62 63 66 69 71 77
63 54 49 45 41 39 36 36 37 40 41 42 47 55 60 65 69 80 78 73 72 71 70 72 75 79 81 83 85 87 89 92 94 96 97 97 95 86 74 66 67 71 75 79
43 41 40 39 37 37 40 41 40 43 45 47 52 57 65 72 73 73 77 79 80 78 74 75 78 80 83 87 91 93 94 95 97 98 99 99 98 95 86 81 77 76 82 86
36 37 39 43 46 49 51 51 51 52 55 53 56 64 67 70 79 81 78 86 88 84 79 77 79 78 77 79 83 87 89 90 91 93 93 95 98 98 98 93 88 88 91 92
46 50 51 52 56 56 55 53 51 52 56 60 58 62 69 71 73 79 82 93 94 90 84 78 74 70 69 68 69 68 65 66 70 78 86 92 94 96 98 99 98 97 97 98

GFSNGP_prec_cthk_033.txt.gz
RH
30 28 23 21 22 28 30 30 36 30 35 36 44 49 53 57 61 64 68 71 71 71 74 74 69 65 55 47 46 43 40 41 40 34 28 27 30 33 36 37 34 42 57 69
30 32 30 24 21 26 27 27 31 34 38 39 44 50 55 60 63 66 67 68 72 75 72 66 63 59 48 46 41 35 35 29 27 28 30 33 33 34 33 35 45 54 65 68
29 37 29 27 21 26 26 27 30 41 36 42 49 52 56 61 65 67 69 72 76 73 69 65 57 47 45 41 35 32 27 29 31 33 33 32 34 32 33 40 50 61 69 79
35 34 30 20 24 25 27 32 32 34 37 43 49 52 57 62 65 66 68 73 73 70 65 57 50 47 43 37 31 29 31 33 36 34 30 34 33 35 40 46 56 65 75 81
41 41 27 22 27 29 29 31 34 35 42 48 52 56 61 66 65 66 70 71 71 68 59 53 48 46 39 32 33 33 34 35 33 34 34 35 35 39 47 58 69 73 72 72
48 35 32 21 26 26 30 39 33 38 43 50 56 63 63 65 67 72 72 74 70 62 55 50 47 40 36 35 33 32 31 33 37 38 36 37 38 47 56 69 75 73 64 56
51 43 34 23 28 31 42 32 33 37 44 51 58 61 62 70 74 72 73 72 66 58 53 46 41 36 33 32 31 32 35 38 39 38 40 41 43 56 63 75 67 62 50 48
50 51 41 24 32 36 32 31 33 38 47 56 60 65 73 76 75 72 74 70 63 53 48 40 35 32 32 32 34 36 36 38 40 42 43 45 50 62 69 66 57 51 47 45
37 36 27 29 30 33 36 36 39 43 53 60 63 71 74 77 74 76 73 65 55 49 41 37 34 33 33 34 35 34 35 38 41 46 47 49 57 62 61 53 48 43 43 45
36 30 33 34 35 38 40 43 45 52 59 64 71 80 78 76 77 76 66 57 50 43 40 38 36 35 36 35 33 35 36 40 44 45 50 53 59 57 52 46 46 45 45 47
42 37 40 39 39 41 46 50 51 57 61 69 79 79 80 80 78 67 58 51 44 43 41 39 37 37 35 32 32 35 38 43 47 49 54 58 57 56 55 48 47 46 46 50
41 34 37 37 40 46 50 52 56 64 72 77 77 79 81 77 67 58 51 47 45 43 40 40 38 34 31 29 33 36 41 48 50 53 60 63 56 57 58 50 48 48 47 52
40 42 43 45 48 50 57 66 71 77 83 86 86 81 77 70 61 52 49 48 45 42 43 39 34 29 28 31 35 39 46 52 56 59 66 69 63 58 57 54 51 49 50 53
47 49 50 51 58 66 71 77 83 83 90 87 81 81 74 62 53 51 50 45 44 44 39 35 30 28 30 36 39 46 54 58 63 67 70 74 67 61 56 53 51 52 55 54
50 54 57 63 69 77 85 84 88 94 90 84 84 78 63 55 53 51 47 46 43 38 36 32 30 32 37 41 47 54 59 65 72 74 74 72 70 65 57 55 54 53 56 55
62 68 75 81 83 84 88 95 97 88 88 87 80 64 58 54 51 49 46 42 38 36 33 31 34 38 42 47 53 60 66 72 77 80 73 63 68 67 65 60 61 56 57 56
76 80 82 87 90 94 97 93 87 92 88 72 65 61 56 51 48 45 42 41 36 34 34 37 39 45 49 52 59 66 73 77 80 80 69 66 66 66 66 69 62 62 60 57
85 88 91 93 97 96 94 93 85 75 68 66 62 57 51 47 44 43 40 34 34 38 44 46 48 51 53 57 64 70 76 81 84 77 73 69 67 65 68 69 68 63 60 58
90 91 92 95 92 86 81 77 73 69 66 61 55 51 47 45 41 37 37 38 39 42 46 51 54 55 56 62 68 72 77 85 89 81 78 76 72 70 68 69 66 63 57 60
87 86 84 83 83 82 75 72 68 63 59 55 51 46 43 39 40 39 40 42 52 54 55 58 60 60 60 64 71 72 77 84 86 85 84 85 84 81 76 67 64 61 58 62
81 81 82 80 77 74 71 67 61 56 53 47 42 39 39 38 39 42 45 50 58 63 66 65 66 66 65 65 72 76 78 81 86 88 88 90 93 96 95 83 63 58 58 63
81 79 78 76 71 68 61 55 51 45 42 40 39 39 39 39 44 52 59 63 65 73 70 66 69 71 69 69 75 81 83 84 88 91 92 94 94 96 97 98 86 66 61 64
83 79 73 67 57 49 43 42 42 41 38 38 39 43 46 47 50 53 56 67 72 71 70 66 72 77 75 71 76 82 85 89 94 96 97 97 98 99 98 99 96 87 71 68
69 60 51 45 41 40 40 40 40 41 43 45 48 50 51 49 46 56 61 66 72 73 72 77 78 84 81 76 75 79 82 86 92 96 98 99 99 98 96 96 98 99 91 83
40 39 38 38 40 43 44 45 43 44 45 43 43 41 45 49 54 56 64 64 64 69 75 78 83 87 84 79 76 73 72 72 74 79 83 85 87 91 92 92 93 95 98 95
33 36 39 43 44 45 47 48 46 43 41 36 36 43 46 49 49 54 60 66 71 77 81 84 87 87 84 74 68 65 61 59 60 61 63 67 73 80 85 88 93 94 95 98
36 37 37 39 42 42 41 39 37 33 35 40 39 42 46 48 57 66 67 70 76 80 84 87 88 86 81 70 62 57 54 53 54 55 57 63 72 80 88 89 92 95 95 97

GFSNGP_prec_cthk_036.txt.gz
RH
35 33 26 22 21 26 27 27 30 25 29 26 32 37 42 47 51 55 59 63 65 66 67 72 74 72 70 67 62 54 48 42 34 33 34 33 32 30 32 32 31 34 41 45
34 36 33 28 24 24 25 25 29 28 28 27 29 36 42 47 51 54 58 62 65 68 73 74 71 70 67 62 55 47 42 35 35 35 34 34 33 31 33 32 34 37 43 54
37 37 31 28 23 25 23 23 25 30 24 31 34 37 41 47 50 55 60 64 68 70 68 67 69 69 64 57 50 43 37 36 37 36 34 34 35 35 32 30 36 43 54 63
35 33 28 18 22 24 24 23 25 27 29 32 34 39 44 48 52 59 62 66 68 68 69 71 71 66 59 53 45 37 36 37 36 33 34 35 35 34 35 34 44 53 63 69
37 38 25 19 24 28 28 24 28 29 32 34 38 43 45 50 56 59 64 68 70 70 68 69 68 62 55 46 38 37 37 36 34 35 34 35 35 36 38 41 53 61 70 64
48 35 31 20 22 24 25 34 26 28 33 36 41 48 44 51 58 63 67 70 70 71 71 71 65 55 47 40 40 40 37 35 35 33 36 36 38 38 42 48 59 68 67 56
52 44 33 22 25 27 35 29 28 28 32 36 40 42 46 52 58 66 70 71 74 77 74 67 56 49 42 42 42 37 36 35 33 37 37 41 40 43 48 55 63 66 61 49
52 52 41 25 30 33 30 28 29 34 34 36 41 49 52 57 64 74 76 75 81 78 68 57 50 45 45 43 39 38 36 33 35 35 39 42 44 48 53 54 58 57 52 47
40 37 28 28 29 30 32 34 35 37 39 43 51 56 64 65 77 76 74 82 80 68 59 50 47 47 43 41 40 36 33 35 35 37 40 45 49 53 58 57 56 55 50 47
36 29 31 33 33 36 38 39 41 43 49 53 61 64 71 78 78 81 84 82 68 59 51 50 49 44 43 41 37 33 34 35 36 39 45 49 52 57 57 55 55 57 53 48
40 37 37 36 36 37 38 41 45 51 57 62 69 73 79 85 87 84 80 66 59 54 53 51 47 45 42 37 33 32 33 34 38 45 50 55 59 59 61 59 58 61 56 51
44 36 38 37 39 41 43 47 52 57 64 72 75 84 94 91 88 80 69 60 57 56 52 49 46 42 38 36 33 33 35 37 46 51 55 62 67 65 65 63 60 60 56 52
43 45 47 48 50 51 53 57 63 71 75 84 89 95 91 89 83 69 62 63 60 53 51 45 42 39 38 34 36 37 38 45 50 56 62 69 74 72 67 66 65 62 59 57
55 54 53 54 56 58 64 71 79 83 86 95 96 88 91 85 69 68 64 59 53 50 45 43 41 38 36 37 37 38 44 50 55 61 69 75 79 74 64 66 66 66 64 62
56 57 58 60 64 73 79 82 85 89 99 95 92 94 80 72 69 65 59 54 50 46 44 41 38 38 38 37 39 42 49 53 59 66 73 78 76 72 66 65 68 71 67 64
62 65 71 77 81 85 88 92 95 97 95 96 88 78 73 71 65 58 54 51 46 44 42 41 40 37 36 40 43 46 53 59 63 69 77 80 74 70 69 70 70 72 73 67
79 82 85 89 92 93 94 95 94 94 91 83 76 74 70 64 58 54 50 45 43 44 45 41 37 40 42 46 49 51 55 63 67 73 81 82 76 73 72 70 67 71 74 73
88 90 90 91 91 92 91 91 87 82 78 76 74 67 62 57 52 46 44 43 46 44 44 42 43 46 50 54 57 59 61 65 72 76 82 84 77 77 77 76 74 71 69 70
87 88 87 85 83 82 81 79 79 78 74 68 63 59 53 48 47 46 46 42 40 40 42 50 52 56 59 63 63 65 66 70 75 80 82 87 86 84 85 85 84 79 73 66
79 79 81 81 80 80 80 76 71 67 63 57 52 48 47 46 44 42 40 37 42 48 50 56 62 68 70 68 68 68 74 76 78 84 88 89 91 91 92 94 95 95 89 73
78 79 79 79 76 71 67 63 58 55 52 48 45 42 39 36 37 41 42 41 39 52 59 65 70 73 72 70 70 72 80 79 80 86 90 94 96 96 97 98 98 98 98 97
79 78 75 72 66 60 54 48 43 41 40 39 37 38 39 38 39 40 40 46 42 50 57 64 71 73 74 75 74 78 85 84 83 87 91 94 96 99 99 99 99 99 99 98
77 71 66 58 50 44 38 38 38 36 36 39 41 43 44 42 39 42 36 39 45 53 57 62 68 70 71 75 77 82 88 86 82 81 84 88 91 93 96 97 96 96 95 94
68 58 47 41 40 38 35 34 36 38 40 41 43 44 46 43 34 41 46 47 50 52 55 62 67 72 73 78 80 87 89 85 75 71 70 70 73 76 79 85 88 91 92 94
43 39 39 39 39 38 37 38 37 35 31 28 28 30 35 40 45 41 45 45 51 63 68 71 74 76 80 82 83 85 83 74 64 58 58 60 59 59 64 70 77 83 87 89
40 40 40 40 39 39 36 32 30 32 33 33 33 38 37 40 44 49 52 59 64 70 74 75 77 76 81 85 85 83 77 68 60 58 57 59 57 57 61 68 75 83 87 91
42 43 43 43 41 38 37 35 35 34 35 36 35 36 40 46 51 56 61 67 69 72 76 78 81 80 83 87 86 83 78 70 63 61 62 63 61 61 63 70 77 83 90 93

GFSNGP_prec_cthk_039.txt.gz
RH
37 37 33 28 26 28 26 25 26 20 21 19 21 25 30 35 41 46 52 55 59 64 68 68 67 78 69 64 63 64 58 50 45 45 44 44 39 35 33 31 30 31 32 39
37 38 36 32 27 25 27 26 25 25 22 21 24 26 31 36 41 46 51 54 58 62 66 69 68 65 65 66 64 58 53 48 47 46 44 40 37 35 33 32 31 32 35 41
38 37 32 32 25 25 25 24 24 27 19 23 26 28 30 35 41 45 49 53 58 61 64 64 64 68 68 65 60 56 49 47 46 43 41 39 36 33 32 33 34 35 40 49
36 32 28 19 22 23 24 22 23 23 23 26 29 31 32 36 41 45 50 54 58 62 62 63 68 69 70 64 57 50 47 45 44 42 40 36 33 33 34 35 34 38 48 56
39 32 24 18 21 24 27 22 22 22 25 30 32 33 34 37 43 47 50 56 60 62 64 70 73 73 68 59 52 47 46 45 42 40 35 33 33 34 35 33 36 45 54 61
46 35 33 21 22 25 26 30 22 26 30 32 32 37 31 39 44 48 52 57 61 64 73 72 74 72 62 54 49 49 47 43 40 34 33 33 35 37 33 38 43 51 58 61
51 46 35 25 26 28 30 26 24 27 28 33 34 34 36 40 46 51 56 61 69 74 75 79 75 63 53 50 52 48 47 42 36 34 34 35 37 35 38 43 49 55 56 54
53 51 44 29 31 33 30 28 29 31 32 34 37 39 43 48 55 58 64 72 82 80 82 76 62 53 53 55 50 48 42 37 37 33 35 37 36 39 44 48 54 58 58 55
39 36 30 29 30 30 32 34 36 38 41 44 46 49 53 60 66 66 81 73 79 85 76 64 56 59 59 54 50 44 38 36 33 34 37 36 39 45 49 53 55 58 58 56
37 30 32 34 34 35 37 39 43 44 45 48 53 59 63 69 76 81 76 88 84 74 64 61 65 61 56 50 44 38 35 35 36 39 35 38 44 49 55 60 57 59 61 60
39 37 37 36 37 39 40 41 43 46 51 56 62 66 70 78 85 88 92 88 75 64 68 68 62 56 49 44 39 37 37 37 38 35 36 42 49 55 61 64 62 63 64 62
45 41 42 43 45 46 48 50 54 57 61 64 71 74 80 93 95 92 82 70 72 72 65 61 54 48 42 40 40 39 38 38 37 36 42 47 53 60 66 69 63 61 61 64
49 52 53 54 55 56 58 59 60 63 68 74 83 93 97 97 92 82 76 76 71 64 60 53 46 42 42 42 41 40 39 39 38 41 49 52 57 64 70 71 63 60 63 65
60 60 60 60 61 61 63 66 71 80 87 93 95 97 95 91 80 78 76 71 64 61 52 46 43 44 44 41 41 39 40 42 43 47 54 58 64 71 73 71 68 65 60 66
64 65 67 70 74 76 79 84 90 94 97 98 96 93 88 84 82 76 69 64 58 51 50 48 46 45 42 42 39 40 45 46 49 54 57 62 69 74 72 69 68 68 66 65
67 72 79 84 87 91 93 94 96 96 96 95 92 89 84 79 73 70 64 56 52 49 47 45 44 44 42 42 43 47 50 53 57 61 62 68 73 76 74 72 71 68 70 68
82 87 89 92 95 95 95 93 91 88 86 85 83 80 74 70 65 59 54 51 48 44 44 43 42 42 45 49 52 53 55 57 62 64 68 72 78 81 81 75 76 76 75 75
90 92 93 92 91 89 87 85 83 80 77 76 71 65 61 57 52 48 47 45 43 42 42 42 43 46 51 58 62 63 62 63 63 64 70 76 81 86 87 83 82 81 82 82
88 87 85 83 82 81 80 77 71 66 62 59 56 52 47 45 42 40 40 40 40 38 35 45 49 53 58 64 69 69 68 69 67 69 74 80 82 89 92 94 93 94 95 95
80 81 80 78 74 70 66 64 61 57 52 47 44 42 39 39 40 37 35 31 35 37 36 39 44 48 57 64 72 74 74 73 75 72 79 85 86 89 93 95 97 98 98 98
75 77 74 68 63 60 57 53 48 46 45 43 42 40 36 34 36 37 36 34 30 36 37 39 46 51 59 62 66 72 73 75 74 75 83 88 89 89 92 93 94 96 98 98
78 74 71 65 59 54 49 47 42 42 41 38 38 39 38 35 35 34 36 42 36 38 41 46 49 53 56 63 67 69 71 75 78 82 87 88 84 82 84 87 89 92 93 94
76 70 65 59 51 44 42 41 40 37 36 37 36 34 31 28 27 30 27 31 37 40 45 48 53 58 68 70 70 72 76 82 83 86 86 83 74 69 69 70 73 77 82 87
68 53 44 43 41 37 36 35 35 33 31 29 28 29 30 29 23 31 35 36 40 45 48 52 60 68 72 73 73 73 79 81 82 82 78 71 64 60 62 63 62 63 68 74
46 44 42 39 38 38 38 38 35 33 31 29 27 24 24 27 32 28 37 44 49 54 58 64 67 72 74 77 75 77 79 82 83 79 75 71 64 61 64 65 64 63 66 71
46 47 46 45 44 43 42 40 37 34 29 23 20 20 21 23 26 30 33 41 49 57 60 64 69 73 78 79 77 79 82 85 85 82 79 73 68 67 69 71 68 68 71 73
56 56 54 52 50 48 45 41 33 28 24 22 20 21 21 21 23 26 29 36 45 53 60 65 70 72 78 79 80 82 85 89 89 88 86 80 75 73 73 72 72 72 74 75

GFSNGP_prec_cthk_042.txt.gz
RH
33 33 34 31 30 29 28 23 24 15 15 15 18 18 22 23 28 34 40 44 49 55 59 61 61 62 72 73 65 62 61 55 51 52 52 54 49 45 42 38 36 35 34 35
34 35 35 33 29 27 26 23 23 21 18 19 20 21 23 25 29 33 38 44 49 54 57 60 59 65 71 62 62 63 57 53 54 54 55 52 47 45 41 39 40 42 36 35
35 34 33 38 28 25 24 23 24 25 22 23 21 23 26 28 29 33 39 44 48 53 57 58 61 67 61 66 68 62 55 58 56 54 53 49 47 43 41 41 38 37 36 36
38 35 47 20 21 21 22 22 22 23 23 24 24 26 28 30 32 35 40 44 50 53 56 58 63 59 74 73 66 59 61 59 60 56 53 50 47 42 40 40 36 37 36 41
48 32 25 19 20 21 23 19 20 20 21 23 27 29 28 28 32 38 44 48 52 55 59 61 66 74 71 74 68 63 61 64 58 57 53 48 44 40 39 36 37 37 40 47
47 56 58 26 26 27 26 27 21 22 24 27 29 31 29 32 36 42 47 50 53 57 58 63 71 82 76 73 62 61 67 62 61 54 50 45 41 39 36 40 40 41 44 52
52 55 37 30 28 29 31 28 25 26 27 29 34 35 37 39 44 47 51 53 56 60 69 74 82 80 69 60 64 72 60 55 54 51 45 42 40 38 40 42 43 44 47 54
50 57 51 27 29 32 30 28 29 33 35 37 41 43 44 47 50 53 58 62 67 73 83 85 78 68 62 71 71 61 55 51 49 46 43 40 41 41 41 41 47 53 54 54
36 35 29 30 29 31 32 33 36 39 42 45 46 48 50 53 58 63 65 74 80 88 88 79 69 67 77 68 61 53 46 45 46 43 39 40 39 39 41 46 52 57 59 60
35 31 31 32 34 35 36 37 39 41 43 45 50 53 58 62 65 71 79 85 93 91 83 69 77 70 64 60 51 47 44 46 45 44 43 40 40 39 44 52 59 63 62 63
35 34 34 37 39 42 44 46 48 50 53 57 59 61 63 67 73 82 92 92 86 76 77 80 72 66 59 52 49 47 46 44 42 42 41 41 41 45 51 56 63 66 63 62
41 41 43 45 49 52 53 55 57 58 59 61 64 69 75 84 92 95 93 88 90 87 76 71 66 60 54 51 49 45 43 45 44 42 40 40 44 50 55 59 64 66 63 58
49 52 55 59 59 60 61 61 61 64 71 78 83 88 94 97 95 91 90 88 82 78 72 65 61 56 51 47 47 45 42 45 43 41 43 44 50 56 60 64 66 67 65 62
60 63 66 65 66 68 70 74 78 83 88 91 94 97 97 95 93 90 84 79 75 71 64 59 52 47 47 45 42 43 45 44 44 45 48 51 56 61 66 68 73 72 68 64
65 68 68 69 71 74 81 86 90 93 94 95 95 95 92 89 85 81 75 70 62 54 50 47 46 44 42 42 44 45 45 48 51 49 52 57 61 65 69 73 78 73 73 75
70 72 74 79 83 88 91 92 92 93 93 90 88 85 80 74 68 63 55 51 47 44 43 42 40 41 42 42 44 45 50 51 58 61 58 60 65 66 70 77 84 83 76 76
78 84 88 91 91 91 90 88 86 85 84 79 76 70 62 54 50 48 46 45 40 37 38 38 36 38 37 40 45 52 56 58 63 66 66 64 70 70 72 82 88 93 88 84
89 88 88 87 87 86 85 81 77 72 67 59 55 52 50 50 46 43 38 37 36 34 32 29 29 31 35 41 47 51 58 63 64 69 73 71 73 73 76 86 91 94 97 94
86 85 86 85 82 77 72 67 63 60 54 50 46 45 44 42 38 37 37 33 32 30 30 32 31 32 35 41 47 49 57 62 63 66 75 77 79 77 79 90 94 94 97 97
82 79 74 70 65 63 61 56 50 46 42 40 41 40 38 37 36 34 33 31 34 33 32 33 34 34 38 43 49 54 59 62 64 66 68 72 79 78 85 92 95 95 95 96
68 66 65 62 58 55 49 45 43 42 44 41 39 38 37 34 29 26 26 26 27 30 31 31 33 37 46 50 53 56 60 66 70 71 73 77 82 85 88 90 92 90 91 93
66 61 57 55 52 49 50 49 44 38 35 32 31 30 29 29 27 27 30 30 29 29 32 36 40 45 49 56 58 68 73 72 72 74 78 82 84 88 88 86 80 77 77 79
66 64 61 59 53 42 38 36 35 33 32 33 33 32 31 28 32 30 25 26 29 34 38 40 45 49 53 58 64 70 72 73 74 75 78 81 83 84 81 76 73 69 69 69
64 54 46 40 36 37 40 41 41 40 39 38 36 32 28 24 24 29 29 23 22 24 33 43 48 52 58 66 69 71 74 77 76 77 79 80 82 79 77 75 68 65 69 71
55 50 43 43 44 46 46 48 47 46 44 40 34 29 27 28 30 23 18 20 22 25 34 39 46 56 60 67 70 74 80 79 77 77 81 84 83 81 79 78 71 67 72 76
55 50 50 53 56 56 54 51 48 45 38 34 31 29 28 25 28 26 25 26 29 32 36 41 47 54 61 68 71 74 80 80 81 81 85 88 87 85 85 80 75 75 81 80
57 59 64 64 62 58 54 50 43 36 33 30 28 26 27 28 29 30 31 33 37 41 44 48 51 56 61 69 71 73 78 81 82 85 89 90 89 88 87 81 78 80 81 79